HULIANWANG DIGUI-87 (65995 NORAD) Tracking and Keplerian Element Data

This shows tracking and keplerian element data for the satellite.

Feedback or suggestion? Click here.




ElementValue
Catalog65995
NameHULIANWANG DIGUI-87
Epoch Orbit903
Epoch Day354.0383868
Epoch Year2025
RAAN99.9006
Inclination50.0015
Eccentricity5.89E-05
Argument of Perigee167.9502
Mean Anonmoly192.1395
Mean Motion13.53808941
Decay Rate-1.04E-06
L11 65995U 25231A 25354.03838680 -.00000104 00000+0 41922-4 0 9999
L22 65995 50.0015 99.9006 0000589 167.9502 192.1395 13.53808941 9036



Live tracking and technical data element details for HULIANWANG DIGUI-87 (NORAD 65995). HULIANWANG DIGUI-87 can be tracked NOW for your location showing map with azimuth and elevation plus other details from your city location.







IsCatalogInMostPopularTable: catalog: 65995, numindb: 5
Update: records affected: 1



GetName: 65995 HULIANWANG DIGUI-87

Hit Count: updated at: Mon, 20 Apr 2026 10:29:50 GMT